Location: Carrières
(48.9495°N, 2.0407°E)
Time: 23:00:07
(UTC+00:00)

Courier 1B Rocket - Pass Details

Date: 15 April 2024
Orbit: 920 x 1201 km, 28.3° (Epoch: 26 May)

Event Time Altitude Azimuth Distance (km) Brightness Sun altitude
Rises 08:45:22 0° 234° (SW) 3,704 7.8 35.1°
Reaches altitude 10° 08:51:30 10° 192° (SSW) 2,675 7.6 36.0°
Maximum altitude 08:51:58 10° 188° (S) 2,663 7.7 36.1°
Drops below altitude 10° 08:52:27 10° 183° (S) 2,664 7.7 36.1°
Sets 08:58:22 0° 141° (SE) 3,559 8.8 37.0°
